#timestamp,LO_Frequency,Hit,StdDev 
1576386015.4,286047001.3,N
1576386035.2,286047001.6,N
1576386055.1,286046999.7,N
1576386056.0,286046999.7,N
1576386075.8,286047000.5,N
1576386095.6,286046999.0,N
1576386115.5,286046999.3,N
1576386135.3,286046998.4,N
1576386155.2,286046998.3,N
1576386175.9,286047001.0,N
1576386195.7,286046998.7,N
1576386215.6,286047002.6,N
1576386235.4,286046998.2,N
1576386255.2,286047000.5,N
1576386275.1,286047002.4,N
1576386276.0,286047002.4,N
1576386295.8,286047002.5,N
1576386315.7,286047002.3,N
1576386335.5,286047002.1,N
1576386355.3,286047000.8,N
1576386375.2,286047000.9,N
1576386395.0,286047001.1,N
1576386395.9,286047001.1,N
1576386415.7,286046998.5,N
1576386435.6,286047002.5,N
1576386455.4,286046999.9,N
1576386475.3,286047002.6,N
1576386495.1,286047002.3,N
1576386496.0,286047002.3,N
1576386515.8,286046998.2,N
1576386535.7,286046998.7,N
1576386555.5,286046997.0,N
1576386575.3,286047001.2,N
1576386595.2,286046998.8,N
1576386615.0,286046999.6,N
1576386615.9,286046999.6,N
1576386635.8,286046997.3,N
1576386655.6,286047001.0,N
1576386675.4,286047000.4,N
1576386695.3,286047000.8,N
1576386715.1,286046998.8,N
1576386735.8,286046996.7,N
1576386755.7,286046997.0,N
1576386775.5,286046998.4,N
1576386795.4,286046996.7,N
1576386815.2,286046997.4,N
1576386835.0,286046997.8,N
1576386835.9,286046997.8,N
1576386855.8,286046999.5,N
1576386875.6,286046999.2,N
1576386895.4,286046999.1,N
1576386915.3,286046999.1,N
1576386935.1,286046999.4,N
1576386955.9,286046998.2,N
1576386975.7,286047000.3,N
1576386995.5,286047001.2,N
1576387015.4,286047000.4,N
1576387035.2,286046999.7,N
1576387055.0,286047000.0,N
1576387055.9,286047000.0,N
1576387075.8,286046999.9,N
1576387095.6,286046998.4,N
1576387115.5,286046998.6,N
1576387135.3,286047000.9,N
1576387155.1,286047002.3,N
1576387175.9,286047003.1,N
1576387195.7,286047002.9,N
1576387215.5,286047002.6,N
1576387235.4,286047002.8,N
1576387255.2,286046999.8,N
1576387275.1,286046999.8,N
1576387276.0,286046999.8,N
1576387295.8,286047002.7,N
1576387315.6,286047001.6,N
1576387335.5,286047000.1,N
1576387355.3,286046998.9,N
1576387375.1,286046997.4,N
1576387395.9,286046997.1,N
1576387415.7,286046997.1,N
1576387435.6,286046996.6,N
1576387455.4,286047000.8,N
1576387475.2,286046998.2,N
1576387495.1,286047000.1,N
1576387496.0,286047000.1,N
1576387515.8,286046998.6,N
1576387535.6,286047002.5,N
1576387555.5,286046999.7,N
1576387575.3,286047001.3,N
1576387595.2,286047002.0,N
1576387615.9,286047004.3,N
1576387635.7,286047002.1,N
1576387655.6,286047001.9,N
1576387675.4,286047002.5,N
1576387695.2,286047001.7,N
1576387715.1,286047004.4,N
1576387716.0,286047004.4,N
1576387735.8,286047002.1,N
1576387755.7,286047003.9,N
1576387775.5,286047004.4,N
1576387795.3,286047004.4,N
1576387815.2,286046999.7,N
1576387835.0,286047000.1,N
1576387835.9,286047000.1,N
1576387855.8,286046998.6,N
1576387875.6,286047000.0,N
1576387895.4,286046998.1,N
1576387915.3,286046996.8,N
1576387935.1,286046997.2,N
1576387955.8,286046997.2,N
1576387975.7,286046996.8,N
1576387995.5,286046997.2,N
1576388015.4,286046999.1,N
1576388035.2,286046999.4,N
1576388055.0,286046998.4,N
1576388055.9,286046998.4,N
1576388075.8,286046999.8,N
1576388095.6,286047003.8,N
1576388115.5,286047005.2,N
1576388135.3,286047004.2,N
1576388155.1,286047001.8,N
1576388175.9,286046999.7,N
1576388195.7,286047002.2,N
1576388215.6,286047001.7,N
1576388235.4,286046999.7,N
1576388255.2,286047004.1,N
1576388275.1,286047004.2,N
1576388276.0,286047004.2,N
1576388295.8,286047003.3,N
1576388315.6,286047003.6,N
1576388335.5,286047004.6,N
1576388355.3,286047005.6,N
1576388375.2,286047006.4,N
1576388395.9,286047004.9,N
1576388415.7,286047003.3,N
1576388435.6,286047004.0,N
1576388455.4,286047003.3,N
1576388475.3,286047005.8,N
1576388495.1,286047004.1,N
1576388496.0,286047004.1,N
1576388515.8,286047001.7,N
1576388535.7,286047000.2,N
1576388555.5,286046999.3,N
1576388575.3,286047000.5,N
1576388595.2,286046998.9,N
1576388615.0,286046999.0,N
1576388615.9,286046999.0,N
1576388635.8,286046999.3,N
1576388655.6,286046999.6,N
1576388675.4,286047002.8,N
1576388695.3,286047002.3,N
1576388715.1,286047002.8,N
1576388735.9,286047002.2,N
1576388755.7,286047002.8,N
1576388775.5,286047000.4,N
1576388795.4,286047001.1,N
1576388815.2,286047000.0,N
1576388835.1,286047002.7,N
1576388836.0,286047002.7,N
1576388855.8,286047002.2,N
1576388875.6,286046999.9,N
1576388895.5,286047000.9,N
1576388915.3,286047001.9,N
1576388935.1,286047002.2,N
1576388955.9,286047003.0,N
1576388975.7,286047003.1,N
1576388995.6,286047003.4,N
1576389015.4,286047005.4,Y
1576389035.2,286047002.6,P
1576389055.1,286047001.4,N
1576389056.0,286047001.4,N
1576389075.8,286047002.2,Y
1576389095.7,286047000.8,P
1576389115.5,286047000.6,N
1576389135.3,286046999.4,N
1576389155.2,286046997.9,N
1576389175.0,286046995.0,Y
1576389175.9,286046995.0,P
1576389195.8,286046996.7,N
1576389215.6,286046999.5,N
1576389235.4,286047001.0,N
1576389255.3,286047000.8,N
1576389275.1,286046999.1,N
1576389295.8,286047002.7,N
1576389315.7,286047004.4,N
1576389335.5,286047003.7,N
1576389355.4,286047000.4,N
1576389375.2,286046998.6,N
1576389395.0,286046999.3,N
1576389395.9,286046999.3,N
1576389415.8,286046999.3,N
1576389435.6,286046998.7,N
1576389455.4,286046999.2,N
1576389475.3,286046999.3,N
1576389495.1,286046998.4,N
1576389515.9,286046998.4,N
1576389535.7,286046999.2,N
1576389555.5,286046997.1,N
1576389575.4,286046995.3,N
1576389595.2,286046995.6,N
